Home > Weather > Geneva > Past weeks

Flag for Switzerland Past Weather in Geneva, Geneva, Switzerland — Yesterday and Last 2 Weeks

Now
56 °F

Cool.


Feels Like: 56 °F
Forecast: 53 / 73 °F
Wind: 2 mph from Southwest

Location: Geneve-Cointrin

Current Time: Jun 26, 2016 at 4:53:16 AM

Latest Report: Jun 26, 2016 at 4:00 AM


Visibility: N/A

Pressure: 30.09 "Hg

Humidity: 83%

Dew Point: 51 °F

Location of GenevaLocation

Past Weather in Geneva — Graph

°F

Geneva Temperature Yesterday

Maximum temperature yesterday: 76 °F (at 2:00 PM)
Minimum temperature yesterday: 64 °F (at 7:00 AM)
Average temperature yesterday: 69 °F

High & Low Weather Summary for the Past Weeks

 TemperatureHumidityPressure
High89 °F (Jun 23, 6:00 PM)95% (Jun 11, 7:00 AM)30.28 "Hg (Jun 11, 7:00 AM)
Low47 °F (Jun 20, 6:00 AM)31% (Jun 24, 4:00 PM)29.56 "Hg (Jun 15, 7:00 PM)
Average63 °F75%29.97 "Hg
* Reported Jun 11 3:00 AM — Jun 26 3:00 AM, Geneva, Weather by CustomWeather, © 2016

Note: Actual official high and low records may vary slightly from our data, if they occured in-between our weather recording intervals... More about our weather records

Advertising

Geneva Weather History for the Previous 24 Hours

Scroll right to see more
 ConditionsComfort  
Time TempWeatherWind HumidityBarometerVisibility
3:00 AM
Sun, Jun 26
57 °FCool.1 mph84%30.09 "HgN/A
2:00 AM60 °FPassing clouds.2 mph76%30.09 "Hg22 mi
1:00 AM62 °FCool.3 mph70%30.09 "HgN/A
12:00 AM65 °FMild.7 mph63%30.08 "HgN/A
11:00 PM
Sat, Jun 25
66 °FPassing clouds.3 mph62%30.07 "Hg25 mi
10:00 PM67 °FMild.6 mph58%30.05 "HgN/A
9:00 PM67 °FMild.6 mph62%30.03 "HgN/A
8:00 PM71 °FScattered clouds.5 mph56%30.01 "Hg28 mi
7:00 PM71 °FMild.5 mph61%30.00 "HgN/A
6:00 PM72 °FMild.3 mph60%29.99 "HgN/A
5:00 PM71 °FPartly sunny.5 mph60%30.00 "Hg25 mi
4:00 PM73 °FMild.7 mph58%29.98 "HgN/A
3:00 PM75 °FMild.5 mph55%29.96 "HgN/A
2:00 PM76 °FPartly sunny.12 mph53%29.96 "Hg25 mi
1:00 PM75 °FMild.9 mph54%29.97 "HgN/A
12:00 PM72 °FMild.12 mph67%29.98 "HgN/A
11:00 AM71 °FPartly sunny.9 mph70%29.98 "Hg22 mi
10:00 AM70 °FMild.3 mph68%29.97 "HgN/A
9:00 AM69 °FMild.2 mph69%29.97 "HgN/A
8:00 AM66 °FScattered clouds.6 mph86%29.98 "Hg19 mi
7:00 AM64 °FMild.5 mph90%29.98 "HgN/A
6:00 AM66 °FMild.13 mph78%30.00 "HgN/A
5:00 AM66 °FPassing clouds.3 mph93%29.98 "Hg12 mi
4:00 AM66 °FMild.2 mph92%29.97 "HgN/A
Weather by CustomWeather, © 2016

See weather overviewHow to use our weather pages